Flag for France Weather past 2 weeks in Grenoble, France

Now
70 °F

Clear.


Feels Like: 70 °F
Forecast: 50 / 69 °F
Wind: 6 mph from North

Location: Grenoble / St. Geoirs

Current Time: Sep 21, 2014 at 4:39:24 PM

Latest Report: Sep 21, 2014 at 4:00 PM


Visibility: N/A

Pressure: 30.07 "Hg

Humidity: 69%

Dew point: 59 °F

Location of GrenobleLocation

Historic Weather in Grenoble — Graph

°F

Grenoble temperature yesterday

Maximum temperature yesterday: 77 °F (at 2:30 PM)
Minimum temperature yesterday: 54 °F (at 7:30 AM)
Average temperature yesterday: 65 °F

Past Weeks' High & Low Weather Summary

 TemperatureHumidityPressure
High84 °F (Sep 7, 5:00 PM)100% (Sep 10, 3:30 AM)30.09 "Hg (Sep 10, 3:30 AM)
Low46 °F (Sep 13, 7:00 AM)37% (Sep 7, 5:00 PM)29.86 "Hg (Sep 17, 1:00 PM)
Average65 °F78%29.99 "Hg
* Reported Sep 6 3:00 PM — Sep 21 3:30 PM, Grenoble, Weather by CustomWeather, © 2014

Note: Actual official high and low records may vary slightly from our data, if they occured in-between our weather recording intervals... More about our weather records

Advertising

Grenoble weather history for previous 24 hours

 ConditionsComfort  
Time TempWeatherWind HumidityBarometerVisibility
3:30 PM
Sep 21
72 °FScattered clouds.7 mph73%30.07 "HgN/A
3:00 PM73 °FBroken clouds.2 mph57%30.07 "HgN/A
2:30 PM73 °FBroken clouds.3 mph61%30.07 "HgN/A
2:00 PM73 °FScattered clouds.2 mph61%30.09 "HgN/A
1:30 PM72 °FClear.2 mph65%30.09 "HgN/A
1:00 PM70 °FClear.2 mph73%30.09 "HgN/A
12:30 PM70 °FPartly sunny.1 mph69%30.09 "HgN/A
12:00 PM68 °FClear.No wind78%30.09 "HgN/A
11:30 AM66 °FClear.1 mph83%30.09 "HgN/A
11:00 AM66 °FClear.3 mph78%30.09 "HgN/A
10:30 AM64 °FOvercast.3 mph83%30.09 "HgN/A
10:00 AM64 °FBroken clouds.6 mph83%30.09 "HgN/A
9:30 AM63 °FBroken clouds.6 mph88%30.09 "HgN/A
9:00 AM61 °FMostly cloudy.3 mph100%30.09 "HgN/A
8:30 AM59 °FClear.6 mph94%30.09 "HgN/A
8:00 AM59 °FClear.6 mph94%30.09 "HgN/A
7:30 AM57 °FPartly cloudy.5 mph100%30.07 "HgN/A
7:00 AM55 °FClear.5 mph100%30.07 "HgN/A
6:30 AM57 °FClear.3 mph94%30.07 "HgN/A
6:00 AM59 °FClear.1 mph94%30.09 "Hg4 mi
5:30 AM57 °FClear.3 mph94%30.07 "HgN/A
5:00 AM59 °FClear.5 mph94%30.07 "HgN/A
4:30 AM59 °FClear.3 mph94%30.07 "Hg6 mi
4:00 AM59 °FClear.7 mph94%30.07 "HgN/A
3:30 AM59 °FClear.6 mph94%30.07 "HgN/A
3:00 AM59 °FClear.6 mph100%30.07 "HgN/A
2:30 AM59 °FClear.7 mph94%30.07 "Hg4 mi
2:00 AM61 °FClear.7 mph94%30.09 "Hg4 mi
1:30 AM59 °FClear.3 mph94%30.09 "Hg4 mi
1:00 AM59 °FClear.5 mph100%30.09 "Hg4 mi
12:30 AM61 °FClear.3 mph94%30.09 "Hg5 mi
12:00 AM63 °FClear.3 mph94%30.09 "Hg4 mi
11:30 PM
Sep 20
61 °FClear.3 mph100%30.09 "Hg4 mi
11:00 PM61 °FClear.3 mph94%30.09 "Hg5 mi
10:30 PM63 °FClear.1 mph94%30.09 "HgN/A
10:00 PM63 °FClear.2 mph94%30.09 "HgN/A
9:30 PM63 °FClear.2 mph94%30.07 "HgN/A
9:00 PM64 °FClear.2 mph88%30.07 "HgN/A
8:30 PM66 °FClear.2 mph83%30.04 "HgN/A
8:00 PM68 °FFog.No wind83%30.04 "Hg1 mi
7:30 PM70 °FClear.3 mph83%30.04 "HgN/A
Weather by CustomWeather, © 2014

See weather overviewHow to use our weather pages